Location: City of Moscow
(46.7306°N, 116.9989°W)
Time: 10:57:51
(UTC+00:00)

Orbus 7S? - Visible Passes

Search period start: 15 March 2026 00:00
Search period end: 25 March 2026 00:00
Orbit: 354 x 6170 km, 56.9° (Epoch: 30 September)

Date Brightness Start Highest point End Pass type
(mag) Time Alt. Az. Time Alt. Az. Time Alt. Az.
15 Mar 9.7 10:46:12 10° ESE 11:00:38 15° E 11:12:12 10° ENE visible
15 Mar 8.7 13:08:59 10° S 13:43:51 53° ESE 14:02:28 10° NE visible
16 Mar 9.8 10:24:27 10° E 10:26:16 10° E 10:28:02 10° E visible
16 Mar 8.9 12:34:43 10° S 13:08:17 47° ESE 13:27:19 10° NE visible
17 Mar 9.0 12:00:56 10° S 12:32:49 40° ESE 12:51:58 10° NE visible
18 Mar 9.1 11:27:44 10° SSE 11:57:27 34° ESE 12:16:23 10° ENE visible
19 Mar 9.3 10:55:16 10° SSE 11:22:13 28° ESE 11:40:27 10° ENE visible
20 Mar 9.4 10:23:44 10° SE 10:47:08 23° ESE 11:04:00 10° ENE visible
20 Mar 8.4 12:54:51 10° SSW 13:31:41 64° SE 13:50:36 10° NE visible
21 Mar 9.5 09:53:34 10° SE 10:12:16 18° E 10:26:43 10° ENE visible
21 Mar 8.5 12:19:43 10° S 12:55:46 57° ESE 13:15:22 10° NE visible
22 Mar 9.6 09:25:59 10° ESE 09:37:35 13° E 09:47:27 10° ENE visible
22 Mar 8.7 11:45:00 10° S 12:19:53 51° ESE 12:40:00 10° NE visible
23 Mar 8.8 11:10:45 10° S 11:44:06 44° ESE 12:04:26 10° NE visible
24 Mar 8.9 10:37:02 10° SSE 11:08:25 38° ESE 11:28:40 10° NE visible
24 Mar 8.1 13:16:51 10° SW 13:54:55 83° SE 14:12:54 10° NE visible
